Погода в Чукаре

Россия / Республика Саха (Якутия)     63°44′51″N   117°58′08″E
темп.,
°C
ветер,
м/с
пор.,
м/с
влажн.,
%
обл.,
%
осадки,
мм/ч
давл.,
гПа
погр.,
м
3 марта, ср
ср300:00−36с129896 0.0 102519
03:00−37с129798 0.0 102619
06:00−39с129864 0.0 102618
09:00−39ссз129764 0.0 102618
12:00−33ссз238973 0.0 1025304
15:00−30ссз238486 0.0 1024483
18:00−32сз229396 0.0 102527
21:00−36сз229573 0.0 102619
4 марта, чт
чт400:00−36зсз229672 0.0 102742
03:00−34зсз369584 0.0 1027229
06:00−33зсз3894100 0.0 1028332
09:00−33зсз3894100 0.1 1028324
12:00−31зсз479099 0.0 1028396
15:00−27зсз488894 0.0 1028526
18:00−27з399091 0.0 1029477
21:00−30з399259 0.0 1031232
5 марта, пт
пт500:00−33з38920 0.0 1032177
03:00−35з36930 0.0 1033108
06:00−36зюз36920 0.0 1033113
09:00−36зюз25930 0.0 1033133
12:00−29зюз25910 0.0 1032343
15:00−26зюз24907 0.0 1030398
18:00−27ююз129446 0.0 103019
21:00−31ю119924 0.0 103019
6 марта, сб
сб600:00−32юв11990 0.0 102919
03:00−32вюв129915 0.0 102819
06:00−32вюв229967 0.0 102819
09:00−32в229853 0.0 102667
12:00−25в24950 0.0 1025232
15:00−22в359325 0.0 1023321
18:00−23в269547 0.0 1022205
21:00−27в259849 0.0 1022102
7 марта, вс
вс700:00−29в239863 0.0 102279
03:00−29в239761 0.0 102255
06:00−30в239727 0.0 102254
09:00−29в249644 0.0 1021128
12:00−22в24930 0.0 1019235
15:00−18вюв359332 0.0 1017318
18:00−18в369699 0.1 1016286
21:00−20в3898100 0.1 1015200